This demonstration page uses our WeatherBlox Daily Observations layout. Learn more.

Left ArrowRight Arrow

38.20091, -84.87328

Hourly Observations for September 6, 2016

Temp ( °F °C ) Dew Point ( °F °C ) Humidity (%) Winds ( mph kmh ) Pressure ( in mb ) Visibility ( mi km ) Precip ( " mm )
12:53 am 00:53 Clear 70 21.1 65 18.3 84 84 Calm 30.17 1022 10 16 0.00 0.00
1:53 am 01:53 Clear 69 20.6 64 17.8 84 84 Calm 30.17 1022 10 16 0.00 0.00
2:53 am 02:53 Clear 67 19.4 64 17.8 91 91 Calm 30.16 1022 10 16 0.00 0.00
3:53 am 03:53 Clear 68 20 64 17.8 87 87 Calm 30.16 1021 10 16 0.00 0.00
4:53 am 04:53 Clear 66 18.9 63 17.2 90 90 Calm 30.16 1021 10 16 0.00 0.00
5:53 am 05:53 Clear 66 18.9 62 16.7 87 87 Calm 30.16 1021 10 16 0.00 0.00
6:53 am 06:53 Clear 65 18.3 62 16.7 90 90 Calm 30.17 1022 10 16 0.00 0.00
7:53 am 07:53 Sunny 65 18.3 61 16.1 87 87 Calm 30.18 1022 10 16 0.00 0.00
8:53 am 08:53 Sunny 73 22.8 67 19.4 81 81 Calm 30.18 1022 10 16 0.00 0.00
9:53 am 09:53 Sunny 78 25.6 66 18.9 67 67 SW 6 9 30.19 1022 10 16 0.00 0.00
10:53 am 10:53 Sunny 84 28.9 67 19.4 57 57 SW 8 13 30.20 1023 10 16 0.00 0.00
11:53 am 11:53 Sunny 88 31.1 65 18.3 46 46 SW 9 15 30.20 1023 10 16 0.00 0.00
12:53 pm 12:53 Sunny 89 31.7 63 17.2 42 42 WSW 9 15 30.19 1023 10 16 0.00 0.00
1:53 pm 13:53 Partly Cloudy 88 31.1 65 18.3 46 46 WNW 9 15 30.19 1022 10 16 0.00 0.00
2:53 pm 14:53 Mostly Sunny 91 32.8 64 17.8 41 41 VRB 6 9 30.17 1022 10 16 0.00 0.00
3:53 pm 15:53 Partly Cloudy 90 32.2 63 17.2 41 41 WSW 5 7 30.16 1021 10 16 0.00 0.00
4:53 pm 16:53 Partly Cloudy 91 32.8 65 18.3 42 42 VRB 7 11 30.14 1021 10 16 0.00 0.00
5:53 pm 17:53 Mostly Sunny 90 32.2 63 17.2 41 41 W 8 13 30.13 1020 10 16 0.00 0.00
6:53 pm 18:53 Sunny 88 31.1 65 18.3 46 46 WSW 6 9 30.12 1020 10 16 0.00 0.00
7:53 pm 19:53 Sunny 84 28.9 66 18.9 55 55 SW 3 6 30.11 1020 10 16 0.00 0.00
8:53 pm 20:53 Clear 78 25.6 67 19.4 69 69 SW 5 7 30.12 1020 10 16 0.00 0.00
9:53 pm 21:53 Clear 76 24.4 67 19.4 74 74 WSW 3 6 30.12 1020 10 16 0.00 0.00
10:53 pm 22:53 Clear 75 23.9 67 19.4 76 76 WSW 3 6 30.13 1020 10 16 0.00 0.00
11:53 pm 23:53 Clear 73 22.8 66 18.9 79 79 Calm 30.13 1020 10 16 0.00 0.00

Powered by AerisWeather